Tracking 20037 objects as of 21-Nov-2019
Live streaming from Space Station
objects crossing your sky now

COSMOS 1275 DEB

Track COSMOS 1275 DEB now!
10-day predictions


NORAD ID: 12671
Int'l Code: 1981-053AB
Perigee: 876.7 km
Apogee: 905.2 km
Inclination: 82.9 °
Period: 102.6 minutes
Semi major axis: 7261 km
RCS: 0.0812 m2 (small)
Launch date: June 4, 1981
Source: Commonwealth of Independent States (former USSR) (CIS)
Launch site: PLESETSK MISSILE AND SPACE COMPLEX (PKMTR)

Note: This is SATELLITE DEBRIS
aabbcc
Your satellite tracking list
Your tracking list is empty




NASA's NSSDC Master Catalog

Two Line Element Set (TLE):
1 12671U 81053AB  19323.90858935  .00000953  00000-0  60413-3 0  9993
2 12671  82.9140 271.1140 0019608 111.9540 248.3718 14.02887785942686
Source of the keplerian elements: AFSPC